Location: Chmeli�t?
(49.8978°N, 15.0526°E)
Time: 07:47:29
(UTC+00:00)

Cosmos 2074 Rocket - Pass Details

Date: 09 October 2020
Orbit: 967 x 987 km, 82.9° (Epoch: 30 October)

Event Time Altitude Azimuth Distance (km) Brightness Sun altitude
Rises 22:33:51 0° 341° (NNW) 3,688 7.7 -46.7°
Reaches altitude 10° 22:36:52 10° 328° (NNW) 2,732 6.8 -46.8°
Enters shadow 22:37:35 13° 323° (NW) 2,537 6.5 -46.8°
